�N����,����,����,����,����,�C��,���x,�~����,�S�V����,�ő�u�ԕ���,,,,,
,,,,,,,,,����,����,����,�N��,,
yyyy/mm/dd,hh:mm:ss,(16),16����,m/s,��,%,mm,KW/�u,(16),16����,m/s,Time,,
2017/4/1,1:00:00,16,�É�,0,-3,92.2,0,0,12,��,2.4,7,,
2017/4/1,2:00:00,16,�É�,0,-2.9,91.4,0,0,16,�É�,0,0,,
2017/4/1,3:00:00,16,�k,0.3,-3.3,88.6,0,0,12,��,2,48,,
2017/4/1,4:00:00,16,�É�,0,-3.9,88.2,0,0,16,�k,2.3,33,,
2017/4/1,5:00:00,12,��,0.8,-5.9,87.6,0,0,12,��,1.4,51,,
2017/4/1,6:00:00,12,��,1,-5.5,90.3,0,0.05,12,��,1.5,13,,
2017/4/1,7:00:00,16,�É�,0,-3.1,72.5,0,0.24,12,��,1.3,1,,
2017/4/1,8:00:00,9,��쐼,1.6,0.5,47.2,0,0.46,9,��쐼,2.6,54,,
2017/4/1,9:00:00,8,��,2.6,1.1,49.8,0,0.65,8,��,4.8,36,,
2017/4/1,10:00:00,7,��쓌,4,1.2,50.6,0,0.78,7,��쓌,6.6,50,,
2017/4/1,11:00:00,7,��쓌,4.7,1.3,51.2,0,0.87,8,��,7.2,46,,
2017/4/1,12:00:00,7,��쓌,4.5,1.6,56.3,0,0.91,7,��쓌,8.2,25,,
2017/4/1,13:00:00,7,��쓌,4.6,1.7,58.1,0,0.89,7,��쓌,8.3,35,,
2017/4/1,14:00:00,7,��쓌,4.3,1.6,61,0,0.79,6,�쓌,8.5,54,,
2017/4/1,15:00:00,7,��쓌,3.5,1,68.4,0,0.43,7,��쓌,7.4,27,,
2017/4/1,16:00:00,8,��,3.7,0.5,70.7,0,0.24,8,��,7.4,35,,
2017/4/1,17:00:00,8,��,4,0.1,70.3,0,0.18,8,��,7.4,54,,
2017/4/1,18:00:00,8,��,3.6,-0.6,75.6,0,0.05,7,��쓌,7.1,52,,
2017/4/1,19:00:00,8,��,3.6,-0.6,79.5,0,0,7,��쓌,7.3,54,,
2017/4/1,20:00:00,8,��,3.3,-0.7,79.2,0,0,8,��,6.8,54,,
2017/4/1,21:00:00,8,��,2.7,-1,78.8,0,0,8,��,6,4,,
2017/4/1,22:00:00,8,��,2.7,-0.6,78,0,0,8,��,5.5,30,,
2017/4/1,23:00:00,8,��,2.3,-0.5,77.6,0,0,7,��쓌,5.5,13,,
2017/4/1,0:00:00,7,��쓌,2,-0.5,79.9,0,0,7,��쓌,4.4,0,,
2017/4/2,1:00:00,16,�É�,0.1,-1,81.1,0,0,7,��쓌,3.4,1,,
2017/4/2,2:00:00,16,�É�,0,-3.2,81.8,0,0,6,�쓌,1.3,22,,
2017/4/2,3:00:00,14,�k��,1.8,-3.3,88.3,0,0,14,�k��,2.7,34,,
2017/4/2,4:00:00,14,�k��,2,-3.2,90.3,0,0,2,�k��,3.1,48,,
2017/4/2,5:00:00,14,�k��,2,-4,89.5,0,0.01,14,�k��,3.7,12,,
2017/4/2,6:00:00,14,�k��,1.6,-3.1,91.8,0,0.04,14,�k��,3.3,30,,
2017/4/2,7:00:00,14,�k��,1.6,-1.7,83.9,0,0.19,13,���k��,2.8,41,,
2017/4/2,8:00:00,13,���k��,1.3,0.6,65.8,0,0.45,13,���k��,3.2,23,,
2017/4/2,9:00:00,16,�É�,0,3,42.1,0,0.66,1,�k�k��,1.7,1,,
2017/4/2,10:00:00,5,���쓌,2.4,2.2,54.2,0,0.8,5,���쓌,3.6,34,,
2017/4/2,11:00:00,6,�쓌,2.4,2.3,52,0,0.89,6,�쓌,3.8,59,,
2017/4/2,12:00:00,6,�쓌,2.7,2.3,59.9,0,0.94,5,���쓌,4.6,54,,
2017/4/2,13:00:00,6,�쓌,2.5,2.4,58,0,0.9,6,�쓌,3.9,9,,
2017/4/2,14:00:00,4,��,1.7,4.3,52,0,0.8,4,��,2.6,36,,
2017/4/2,15:00:00,4,��,2.6,3.7,60.1,0,0.65,4,��,3.3,51,,
2017/4/2,16:00:00,4,��,2.1,3.4,66.2,0,0.47,4,��,3.2,3,,
2017/4/2,17:00:00,3,���k��,1.8,1.8,71.2,0,0.22,3,���k��,3,40,,
2017/4/2,18:00:00,16,�É�,0.1,0.9,79.7,0,0.05,2,�k��,2.4,28,,
2017/4/2,19:00:00,16,�É�,0,-2,83.2,0,0,2,�k��,1.6,16,,
2017/4/2,20:00:00,16,�É�,0,-1.8,86.2,0,0,16,�É�,0,0,,
2017/4/2,21:00:00,16,�É�,0,-3.6,87.2,0,0,2,�k��,2.1,23,,
2017/4/2,22:00:00,16,�É�,0,-3.6,89.4,0,0,1,�k�k��,1.2,33,,
2017/4/2,23:00:00,14,�k��,1,-3.4,90.8,0,0,15,�k�k��,1.8,24,,
2017/4/2,0:00:00,14,�k��,1,-3,93.2,0,0,13,���k��,1.9,0,,
2017/4/3,1:00:00,16,�É�,0,-4.9,94,0,0,13,���k��,2.3,3,,
2017/4/3,2:00:00,13,���k��,1.1,-6.2,92.1,0,0,12,��,2.4,36,,
2017/4/3,3:00:00,13,���k��,1.1,-7.3,93.7,0,0,12,��,3,40,,
2017/4/3,4:00:00,13,���k��,2.1,-4,96.7,0,0,14,�k��,3.2,45,,
2017/4/3,5:00:00,16,�É�,0.2,-5.4,96.2,0,0.01,12,��,2.3,0,,
2017/4/3,6:00:00,12,��,1,-3.8,95.8,0,0.03,13,���k��,2.5,31,,
2017/4/3,7:00:00,15,�k�k��,0.5,-1.9,96,0,0.1,12,��,1.7,6,,
2017/4/3,8:00:00,16,�É�,0,-0.5,94.8,0,0.16,16,�É�,0,0,,
2017/4/3,9:00:00,3,���k��,1.6,0.6,79.4,0,0.37,15,�k�k��,2.6,30,,
2017/4/3,10:00:00,5,���쓌,0.4,2.3,54.6,0,0.66,5,���쓌,2.1,59,,
2017/4/3,11:00:00,5,���쓌,2.4,2.5,64.6,0,0.87,5,���쓌,3.6,48,,
2017/4/3,12:00:00,5,���쓌,2.3,1.2,66.4,0,0.75,6,�쓌,3.7,57,,
2017/4/3,13:00:00,6,�쓌,2,1.3,73.3,0,0.52,6,�쓌,3.2,18,,
2017/4/3,14:00:00,6,�쓌,2.5,0.9,71.1,0,0.6,8,��,4.1,24,,
2017/4/3,15:00:00,7,��쓌,1,2.9,67,0,0.53,6,�쓌,2.8,8,,
2017/4/3,16:00:00,6,�쓌,1.1,3.1,70.5,0,0.4,5,���쓌,2.3,36,,
2017/4/3,17:00:00,7,��쓌,1.9,1.8,83.4,0,0.18,3,���k��,4.3,32,,
2017/4/3,18:00:00,5,���쓌,1,0.9,86.3,0,0.04,4,��,3.1,21,,
2017/4/3,19:00:00,16,�É�,0,-0.1,88.2,0,0,7,��쓌,0.8,3,,
2017/4/3,20:00:00,2,�k��,0.7,-1.8,89,0,0,2,�k��,1.2,53,,
2017/4/3,21:00:00,16,�É�,0,-2.2,90.8,0,0,12,��,2.5,40,,
2017/4/3,22:00:00,16,�É�,0,-2.2,91.9,0,0,16,�É�,0,0,,
2017/4/3,23:00:00,16,�É�,0,-2.4,92.3,0,0,16,�É�,0,0,,
2017/4/3,0:00:00,2,�k��,1.7,-0.5,95.4,0,0,3,���k��,2.5,49,,
2017/4/4,1:00:00,16,�É�,0,-1.1,95.7,0,0,2,�k��,2.2,8,,
2017/4/4,2:00:00,2,�k��,0.3,-1.4,94.8,0,0,14,�k��,2,23,,
2017/4/4,3:00:00,2,�k��,2,-1.8,95.1,0,0,2,�k��,2.8,53,,
2017/4/4,4:00:00,16,�É�,0,-3.1,95.3,0,0,8,��,1.5,27,,
2017/4/4,5:00:00,10,�쐼,1.1,-4.2,95,0,0.01,12,��,1.8,0,,
2017/4/4,6:00:00,16,�É�,0,-3.7,95.6,0,0.05,12,��,1.9,36,,
2017/4/4,7:00:00,12,��,1.4,-1.5,91.7,0,0.23,12,��,2.2,49,,
2017/4/4,8:00:00,11,���쐼,0.4,1.7,63.5,0,0.45,10,�쐼,1.7,48,,
2017/4/4,9:00:00,6,�쓌,2.3,2.5,57.7,0,0.62,6,�쓌,3.3,50,,
2017/4/4,10:00:00,7,��쓌,2.2,3.2,57.7,0,0.76,5,���쓌,3.2,12,,
2017/4/4,11:00:00,7,��쓌,2.6,1.7,62.3,0,0.85,7,��쓌,4.5,55,,
2017/4/4,12:00:00,7,��쓌,2.1,2.4,68.5,0,0.85,7,��쓌,4.2,36,,
2017/4/4,13:00:00,8,��,2.1,1.7,68,0,0.66,8,��,3.6,24,,
2017/4/4,14:00:00,8,��,1,3.8,67.4,0,0.57,7,��쓌,3.2,16,,
2017/4/4,15:00:00,6,�쓌,1.9,3.2,63,0,0.62,8,��,2.6,15,,
2017/4/4,16:00:00,5,���쓌,3.3,2,71,0,0.41,5,���쓌,4.8,50,,
2017/4/4,17:00:00,3,���k��,3.4,0.3,91.4,0,0.14,3,���k��,5.1,40,,
2017/4/4,18:00:00,3,���k��,1.5,-0.1,94.7,0,0.03,4,��,4.2,6,,
2017/4/4,19:00:00,2,�k��,1.1,-0.7,95.5,0,0,1,�k�k��,2.8,7,,
2017/4/4,20:00:00,1,�k�k��,0.7,-1,95.9,0,0,2,�k��,1.9,5,,
2017/4/4,21:00:00,10,�쐼,0.7,-2,96,0,0,14,�k��,1.6,4,,
2017/4/4,22:00:00,16,�É�,0,-2.5,95.9,0,0,11,���쐼,1.2,5,,
2017/4/4,23:00:00,16,�É�,0,-2.9,96.2,0,0,16,�É�,0,0,,
2017/4/4,0:00:00,16,�É�,0.2,-5,94.9,0,0,12,��,1.4,28,,
2017/4/5,1:00:00,11,���쐼,0.3,-5,95.7,0,0,13,���k��,1.8,59,,
2017/4/5,2:00:00,3,���k��,0.8,-4.8,96.1,0,0,12,��,2.1,0,,
2017/4/5,3:00:00,3,���k��,1.4,-3.6,96.9,0,0,4,��,2.3,53,,
2017/4/5,4:00:00,16,�É�,0,-4,97.4,0,0,4,��,1.7,18,,
2017/4/5,5:00:00,12,��,0.8,-4.8,97.4,0,0.01,12,��,1.6,47,,
2017/4/5,6:00:00,10,�쐼,1.3,-4,98.3,0,0.06,10,�쐼,2.1,38,,
2017/4/5,7:00:00,16,�É�,0,-1.5,98.5,0,0.26,10,�쐼,2,33,,
2017/4/5,8:00:00,5,���쓌,1.1,1.4,67.7,0,0.48,11,���쐼,1.9,39,,
2017/4/5,9:00:00,6,�쓌,1.7,3.3,53.4,0,0.66,6,�쓌,2.2,58,,
2017/4/5,10:00:00,6,�쓌,1.6,5.9,54.1,0,0.79,7,��쓌,2.4,44,,
2017/4/5,11:00:00,3,���k��,0.6,8.7,45.6,0,0.89,6,�쓌,2.7,23,,
2017/4/5,12:00:00,5,���쓌,1.5,9.3,45.5,0,0.94,4,��,2.7,48,,
2017/4/5,13:00:00,5,���쓌,1.4,11.1,47.6,0,0.9,5,���쓌,2.8,10,,
2017/4/5,14:00:00,5,���쓌,1.3,10.1,46.4,0,0.79,6,�쓌,3.3,38,,
2017/4/5,15:00:00,6,�쓌,1.3,13,48.4,0,0.62,7,��쓌,2.5,57,,
2017/4/5,16:00:00,10,�쐼,4,15.3,31,0,0.44,11,���쐼,7.3,52,,
2017/4/5,17:00:00,10,�쐼,5.1,12.7,32,0,0.21,10,�쐼,8,12,,
2017/4/5,18:00:00,10,�쐼,5.4,11.1,36.7,0,0.06,10,�쐼,9.7,38,,
2017/4/5,19:00:00,11,���쐼,4.5,10.4,37.9,0,0,10,�쐼,9.7,24,,
2017/4/5,20:00:00,9,��쐼,1.8,7.6,38.4,0,0,11,���쐼,6.4,4,,
2017/4/5,21:00:00,8,��,2.6,7.4,50.3,0,0,8,��,3.6,46,,
2017/4/5,22:00:00,10,�쐼,1.3,1.9,58.7,0,0,12,��,3.5,25,,
2017/4/5,23:00:00,8,��,0.8,0.7,65,0,0,11,���쐼,4,24,,
2017/4/5,0:00:00,1,�k�k��,0.7,1.5,72.5,0,0,1,�k�k��,3.6,50,,
2017/4/6,1:00:00,11,���쐼,0.3,1.6,70.3,0,0,2,�k��,2.9,15,,
2017/4/6,2:00:00,16,�É�,0.1,0.3,73.1,0,0,13,���k��,3.6,22,,
2017/4/6,3:00:00,2,�k��,1.7,0.9,76.1,0,0,9,��쐼,4,9,,
2017/4/6,4:00:00,16,�É�,0.1,-0.8,74.6,0,0,2,�k��,2.7,14,,
2017/4/6,5:00:00,13,���k��,0.7,-2.8,81.4,0,0.01,12,��,2.5,59,,
2017/4/6,6:00:00,12,��,1.9,2,89.9,0,0.06,13,���k��,2.6,0,,
2017/4/6,7:00:00,13,���k��,2.3,8.6,57.8,0,0.24,14,�k��,4.9,25,,
2017/4/6,8:00:00,12,��,1.3,11.2,45,0,0.4,12,��,4.7,12,,
2017/4/6,9:00:00,8,��,2.6,14.4,25.9,0,0.6,8,��,4,57,,
2017/4/6,10:00:00,5,���쓌,1.1,14.2,27.1,0,0.78,9,��쐼,4.4,1,,
2017/4/6,11:00:00,5,���쓌,0.3,16.1,26.1,0,0.88,6,�쓌,2.5,40,,
2017/4/6,12:00:00,3,���k��,1.6,13.8,29,0,0.89,4,��,3.5,58,,
2017/4/6,13:00:00,6,�쓌,1.9,20.2,31,0,0.81,11,���쐼,7.5,58,,
2017/4/6,14:00:00,9,��쐼,4.3,19.2,29,0,0.79,10,�쐼,9.1,26,,
2017/4/6,15:00:00,8,��,2.8,18.2,31.1,0,0.53,9,��쐼,9.1,6,,
2017/4/6,16:00:00,8,��,3.2,14.5,39.5,0,0.5,7,��쓌,6.1,34,,
2017/4/6,17:00:00,8,��,4.3,6.7,63.2,0,0.11,7,��쓌,7.6,52,,
2017/4/6,18:00:00,9,��쐼,1.7,7.6,75.9,0,0.04,8,��,5.5,1,,
2017/4/6,19:00:00,9,��쐼,2.8,6.5,73,0,0,8,��,6.4,15,,
2017/4/6,20:00:00,16,�É�,0,5.3,81,0,0,8,��,4.8,15,,
2017/4/6,21:00:00,9,��쐼,3.2,6.2,90.8,0,0,9,��쐼,6.6,52,,
2017/4/6,22:00:00,11,���쐼,1.7,5.2,89,0,0,9,��쐼,5.3,5,,
2017/4/6,23:00:00,9,��쐼,3.5,11.8,78.3,0,0,10,�쐼,8.6,56,,
2017/4/6,0:00:00,9,��쐼,3.5,11.4,71.3,0,0,9,��쐼,7.5,25,,
2017/4/7,1:00:00,9,��쐼,1.6,11,68.5,0,0,9,��쐼,6.5,1,,
2017/4/7,2:00:00,9,��쐼,6,7.1,78.2,0,0,9,��쐼,11.1,43,,
2017/4/7,3:00:00,8,��,5.1,8.1,84.2,0,0,9,��쐼,10.2,21,,
2017/4/7,4:00:00,8,��,4.8,7.3,90.6,0,0,7,��쓌,11.3,33,,
2017/4/7,5:00:00,1,�k�k��,3.3,4.7,89.3,0,0,9,��쐼,7.8,1,,
2017/4/7,6:00:00,16,�É�,0,5,91.2,0,0.02,2,�k��,6.4,2,,
2017/4/7,7:00:00,9,��쐼,2.7,11.7,95.5,0,0.06,10,�쐼,6.4,57,,
2017/4/7,8:00:00,8,��,2.1,14.4,64.5,0,0.35,9,��쐼,5.8,1,,
2017/4/7,9:00:00,10,�쐼,4.7,16.2,52.7,0,0.67,10,�쐼,10.6,32,,
2017/4/7,10:00:00,11,���쐼,4.1,17.7,45.9,0,0.81,10,�쐼,9.4,0,,
2017/4/7,11:00:00,14,�k��,5.2,17.5,40.3,0,0.73,14,�k��,10.2,58,,
2017/4/7,12:00:00,14,�k��,5,17.5,40.8,0,0.9,14,�k��,9.7,1,,
2017/4/7,13:00:00,15,�k�k��,5.3,17.2,43.5,0,0.89,15,�k�k��,9.7,41,,
2017/4/7,14:00:00,14,�k��,5.2,17.4,37.3,0,0.78,14,�k��,9.8,44,,
2017/4/7,15:00:00,15,�k�k��,5.7,17,22.6,0,0.65,15,�k�k��,11,52,,
2017/4/7,16:00:00,15,�k�k��,5,14.9,21.6,0,0.41,14,�k��,11.8,3,,
2017/4/7,17:00:00,14,�k��,4.1,12.2,26,0,0.14,14,�k��,11.7,16,,
2017/4/7,18:00:00,16,�k,3.2,10.4,21.9,0,0.06,13,���k��,8.6,5,,
2017/4/7,19:00:00,11,���쐼,3.6,7.2,30.3,0,0,14,�k��,12.3,32,,
2017/4/7,20:00:00,8,��,1.5,4.3,64.6,0,0,9,��쐼,6.3,41,,
2017/4/7,21:00:00,8,��,1.9,2.4,70.6,0,0,10,�쐼,4.2,24,,
2017/4/7,22:00:00,9,��쐼,1,0.4,73.8,0,0,10,�쐼,4.7,0,,
2017/4/7,23:00:00,10,�쐼,1.4,-0.5,76.5,0,0,9,��쐼,3.6,35,,
2017/4/7,0:00:00,9,��쐼,0.9,-1.1,79.5,0,0,10,�쐼,2.5,3,,
2017/4/8,1:00:00,10,�쐼,0.6,-3.9,80.1,0,0,8,��,2.3,8,,
2017/4/8,2:00:00,16,�É�,0,-5.3,82.4,0,0,11,���쐼,1.3,3,,
2017/4/8,3:00:00,16,�É�,0,-3.6,87.3,0,0,6,�쓌,2.5,49,,
2017/4/8,4:00:00,13,���k��,1.3,-3,90.5,0,0,12,��,1.7,52,,
2017/4/8,5:00:00,16,�É�,0,-3.2,91.9,0,0,13,���k��,1.3,21,,
2017/4/8,6:00:00,16,�É�,0,-2,92.9,0,0.03,16,�É�,0,0,,
2017/4/8,7:00:00,16,�É�,0,0.9,93,0,0.11,12,��,1.9,14,,
2017/4/8,8:00:00,6,�쓌,1.9,2.5,65.1,0,0.24,5,���쓌,2.7,56,,
2017/4/8,9:00:00,7,��쓌,3.7,3.1,68.4,0,0.35,8,��,5.9,58,,
2017/4/8,10:00:00,8,��,3.7,3.4,69.1,0,0.4,7,��쓌,7.1,10,,
2017/4/8,11:00:00,7,��쓌,3.6,3.1,69.5,0,0.41,7,��쓌,6.5,34,,
2017/4/8,12:00:00,7,��쓌,3.9,2.5,72.3,0,0.3,6,�쓌,6.2,55,,
2017/4/8,13:00:00,7,��쓌,3.6,3.5,65.9,0,0.41,7,��쓌,6.8,26,,
2017/4/8,14:00:00,6,�쓌,3.1,2.7,70.2,0,0.3,8,��,5.6,33,,
2017/4/8,15:00:00,5,���쓌,3.3,2.5,71.7,0,0.3,6,�쓌,4.7,5,,
2017/4/8,16:00:00,5,���쓌,3.5,2.2,77.2,0,0.18,5,���쓌,5.2,40,,
2017/4/8,17:00:00,5,���쓌,2.9,2,78.7,0,0.08,6,�쓌,5.2,5,,
2017/4/8,18:00:00,4,��,2.9,1.5,82.9,0,0.03,5,���쓌,5.2,27,,
2017/4/8,19:00:00,3,���k��,1.5,1.4,84.6,0,0,4,��,4.2,9,,
2017/4/8,20:00:00,1,�k�k��,0.6,1.4,84,0,0,3,���k��,3,19,,
2017/4/8,21:00:00,2,�k��,1.1,1.4,81.9,0,0,1,�k�k��,2.8,34,,
2017/4/8,22:00:00,3,���k��,1.3,1.3,81.5,0,0,2,�k��,2.4,46,,
2017/4/8,23:00:00,3,���k��,2.1,0.9,90.8,0,0,3,���k��,3.1,50,,
2017/4/8,0:00:00,2,�k��,1.8,0.7,93.5,0,0,2,�k��,4.6,33,,
2017/4/9,1:00:00,1,�k�k��,0.8,0.8,94.1,0,0,1,�k�k��,2.4,30,,
2017/4/9,2:00:00,16,�É�,0,-1.4,91.7,0,0,16,�É�,0,0,,
2017/4/9,3:00:00,12,��,0.4,-1.6,92,0,0,14,�k��,1.5,9,,
2017/4/9,4:00:00,11,���쐼,1,-1.8,93.2,0,0,10,�쐼,1.7,45,,
2017/4/9,5:00:00,16,�É�,0,-2.4,93.1,0,0,13,���k��,1.5,1,,
2017/4/9,6:00:00,10,�쐼,1.3,-0.4,94.8,0,0.03,10,�쐼,2.4,44,,
2017/4/9,7:00:00,9,��쐼,1.9,1.4,94.2,0,0.14,8,��,3.3,58,,
2017/4/9,8:00:00,8,��,1.6,3.8,83.6,0,0.3,10,�쐼,3.7,9,,
2017/4/9,9:00:00,8,��,2.5,5.1,61.8,0,0.45,8,��,3.7,35,,
2017/4/9,10:00:00,8,��,2.7,5.8,62.8,0,0.52,9,��쐼,5,31,,
2017/4/9,11:00:00,8,��,2.5,7.5,58.5,0,0.5,8,��,5.2,18,,
2017/4/9,12:00:00,7,��쓌,3.6,8.6,58.3,0,0.6,7,��쓌,5.3,54,,
2017/4/9,13:00:00,5,���쓌,1.9,9.5,55.1,0,0.6,7,��쓌,5.7,7,,
2017/4/9,14:00:00,15,�k�k��,5.7,11.7,27,0,0.66,1,�k�k��,12.4,46,,
2017/4/9,15:00:00,15,�k�k��,4.1,10.2,28.3,0,0.28,14,�k��,14,28,,
2017/4/9,16:00:00,4,��,2.2,4.6,76.3,0,0.08,16,�k,9.7,2,,
2017/4/9,17:00:00,4,��,2,3.9,65.6,0,0.07,4,��,5.6,25,,
2017/4/9,18:00:00,10,�쐼,2.3,3.2,74.5,0,0.02,10,�쐼,3.5,38,,
2017/4/9,19:00:00,10,�쐼,1.2,2.7,75.9,0,0,10,�쐼,3.5,0,,
2017/4/9,20:00:00,12,��,1.4,3.1,80.2,0,0,14,�k��,5.8,37,,
2017/4/9,21:00:00,11,���쐼,1.7,1.5,81,0,0,8,��,3.6,50,,
2017/4/9,22:00:00,15,�k�k��,1.9,2,49.4,0,0,14,�k��,7.4,40,,
2017/4/9,23:00:00,14,�k��,2.9,2.6,46.6,0,0,13,���k��,6.7,44,,
2017/4/9,0:00:00,14,�k��,1,-0.5,47.1,0,0,16,�k,4.3,10,,
2017/4/10,1:00:00,14,�k��,1.4,-2.1,60.9,0,0,14,�k��,3.1,31,,
2017/4/10,2:00:00,14,�k��,1.7,-1.4,67.3,0,0,13,���k��,3.2,44,,
2017/4/10,3:00:00,11,���쐼,1.1,-6.1,68.9,0,0,14,�k��,2.2,2,,
2017/4/10,4:00:00,16,�É�,0,-7,76.9,0,0,10,�쐼,2.3,29,,
2017/4/10,5:00:00,11,���쐼,0.9,-5.3,79.9,0,0.01,12,��,7,55,,
2017/4/10,6:00:00,16,�k,0.6,2.4,74.5,0,0.1,15,�k�k��,4.8,44,,
2017/4/10,7:00:00,14,�k��,4.6,4.6,52.5,0,0.31,13,���k��,11.4,48,,
2017/4/10,8:00:00,14,�k��,7,5.7,43.9,0,0.52,14,�k��,14.5,55,,
2017/4/10,9:00:00,15,�k�k��,6.9,6.9,32.8,0,0.71,15,�k�k��,13.4,21,,
2017/4/10,10:00:00,14,�k��,7.1,8,31.7,0,0.85,14,�k��,14.4,26,,
2017/4/10,11:00:00,15,�k�k��,9.5,8.8,28.1,0,0.93,11,���쐼,17.9,56,,
2017/4/10,12:00:00,16,�k,7.5,10.7,27,0,0.94,15,�k�k��,16.2,10,,
2017/4/10,13:00:00,16,�k,8.3,11,25.9,0,0.9,14,�k��,15.6,32,,
2017/4/10,14:00:00,15,�k�k��,6.9,11.5,26.5,0,0.82,1,�k�k��,15.8,18,,
2017/4/10,15:00:00,16,�k,6.4,11.4,27,0,0.67,1,�k�k��,13.6,32,,
2017/4/10,16:00:00,7,��쓌,4.9,8.8,31.8,0,0.49,1,�k�k��,12.7,4,,
2017/4/10,17:00:00,5,���쓌,3.5,7.3,38.3,0,0.28,7,��쓌,5.9,7,,
2017/4/10,18:00:00,6,�쓌,0.6,5.4,39.8,0,0.08,6,�쓌,5,1,,
2017/4/10,19:00:00,6,�쓌,3.6,2.4,69.9,0,0,5,���쓌,7.3,30,,
2017/4/10,20:00:00,4,��,1.1,1.6,72.4,0,0,4,��,5,1,,
2017/4/10,21:00:00,8,��,0.8,1.7,77.3,0,0,6,�쓌,4,9,,
2017/4/10,22:00:00,9,��쐼,0.7,0.5,79.5,0,0,10,�쐼,2.5,25,,
2017/4/10,23:00:00,1,�k�k��,0.7,-4,77.6,0,0,6,�쓌,2.5,30,,
2017/4/10,0:00:00,12,��,1.5,-5.8,82,0,0,12,��,2.2,52,,
2017/4/11,1:00:00,16,�É�,0,-5.9,86.4,0,0,12,��,1.8,8,,
2017/4/11,2:00:00,13,���k��,1.1,-5.6,91.1,0,0,12,��,1.8,59,,
2017/4/11,3:00:00,13,���k��,2.5,-1.9,96.6,0,0,13,���k��,4.9,47,,
2017/4/11,4:00:00,14,�k��,2.3,-2.2,93.3,0,0,14,�k��,5,22,,
2017/4/11,5:00:00,13,���k��,1.6,-5.2,90.5,0,0.01,16,�k,4.2,21,,
2017/4/11,6:00:00,12,��,2.3,-2.7,94.3,0,0.09,12,��,3.4,37,,
2017/4/11,7:00:00,14,�k��,1.5,1.2,83.2,0,0.23,13,���k��,2.8,0,,
2017/4/11,8:00:00,4,��,1.7,3.8,60.1,0,0.48,4,��,3.3,59,,
2017/4/11,9:00:00,5,���쓌,3.3,2.9,67,0,0.62,5,���쓌,5.1,38,,
2017/4/11,10:00:00,6,�쓌,2.9,3.2,69.7,0,0.68,4,��,5.7,12,,
2017/4/11,11:00:00,6,�쓌,2.9,5.2,64.8,0,0.76,5,���쓌,6,43,,
2017/4/11,12:00:00,7,��쓌,5.2,6.5,64.7,0,0.61,7,��쓌,11.1,39,,
2017/4/11,13:00:00,7,��쓌,7.2,7.5,65.7,0,0.57,7,��쓌,12.9,59,,
2017/4/11,14:00:00,7,��쓌,7.1,6,70.3,0,0.39,7,��쓌,14,6,,
2017/4/11,15:00:00,7,��쓌,6.1,5.7,71.3,0,0.2,7,��쓌,12.3,31,,
2017/4/11,16:00:00,7,��쓌,3.8,4.4,74.6,0,0.12,8,��,11.1,23,,
2017/4/11,17:00:00,7,��쓌,4.6,4.2,77.8,0,0.04,7,��쓌,8.3,58,,
2017/4/11,18:00:00,8,��,4.2,4.1,77.8,0,0.01,7,��쓌,8.9,5,,
2017/4/11,19:00:00,5,���쓌,3.3,3.9,80.6,0,0,7,��쓌,6.9,23,,
2017/4/11,20:00:00,7,��쓌,2.4,4.2,87.1,0,0,7,��쓌,5.5,58,,
2017/4/11,21:00:00,7,��쓌,3.2,3.8,91.5,0.5,0,8,��,7.4,31,,
2017/4/11,22:00:00,8,��,2.3,3.4,93.1,2,0,8,��,7,14,,
2017/4/11,23:00:00,7,��쓌,2.5,3.2,93.7,1.5,0,7,��쓌,5.5,48,,
2017/4/11,0:00:00,7,��쓌,2,3,94.4,2,0,7,��쓌,5.8,9,,
2017/4/12,1:00:00,8,��,3.1,3.2,95.2,2.5,0,7,��쓌,8,53,,
2017/4/12,2:00:00,7,��쓌,3.1,3,94.2,4,0,6,�쓌,9.8,12,,
2017/4/12,3:00:00,5,���쓌,1.6,3.1,93.8,4,0,7,��쓌,6.4,2,,
2017/4/12,4:00:00,6,�쓌,3,3.3,94.7,3,0,7,��쓌,5.5,55,,
2017/4/12,5:00:00,4,��,1.5,2.9,94.9,2,0,5,���쓌,4.3,34,,
2017/4/12,6:00:00,2,�k��,0.5,2.8,94.9,2.5,0.01,6,�쓌,3.3,21,,
2017/4/12,7:00:00,13,���k��,2.4,1.4,91.8,2,0.05,14,�k��,3.6,52,,
2017/4/12,8:00:00,14,�k��,2.2,1.4,93.6,1.5,0.11,8,��,3.9,5,,
2017/4/12,9:00:00,14,�k��,1.9,2.6,93.8,0.5,0.23,14,�k��,3.9,32,,
2017/4/12,10:00:00,14,�k��,0.7,3.7,89.9,0.5,0.29,14,�k��,3,16,,
2017/4/12,11:00:00,16,�É�,0.2,5.4,84.7,0,0.38,12,��,2.6,16,,
2017/4/12,12:00:00,5,���쓌,2.2,4.1,81.3,0.5,0.44,5,���쓌,3.6,52,,
2017/4/12,13:00:00,14,�k��,2.5,6.2,81.8,0,0.37,13,���k��,6.4,53,,
2017/4/12,14:00:00,15,�k�k��,4.2,7.3,70.7,0,0.62,14,�k��,7.9,37,,
2017/4/12,15:00:00,13,���k��,8.4,7.2,53.4,0,0.38,6,�쓌,16.2,53,,
2017/4/12,16:00:00,13,���k��,8,5.7,43.7,0,0.54,11,���쐼,15.8,0,,
2017/4/12,17:00:00,12,��,6.4,4.4,42.1,0,0.31,13,���k��,13,36,,
2017/4/12,18:00:00,12,��,4.7,2.7,48.1,0,0.09,13,���k��,12.5,11,,
2017/4/12,19:00:00,13,���k��,4.4,2.4,46.2,0,0.01,13,���k��,8.8,29,,
2017/4/12,20:00:00,14,�k��,2.5,1.2,44.7,0,0,13,���k��,7.4,1,,
2017/4/12,21:00:00,12,��,5.8,0.6,50.3,0,0,12,��,9.8,22,,
2017/4/12,22:00:00,12,��,7.4,0.8,44.1,0,0,11,���쐼,10.6,59,,
2017/4/12,23:00:00,11,���쐼,3.8,0.2,44.7,0,0,11,���쐼,12.6,3,,
2017/4/12,0:00:00,12,��,4.5,0.2,42.6,0,0,12,��,8,47,,
2017/4/13,1:00:00,11,���쐼,3.6,0.6,44.2,0,0,11,���쐼,6.4,39,,
2017/4/13,2:00:00,11,���쐼,5,1,44.5,0,0,10,�쐼,9.6,34,,
2017/4/13,3:00:00,10,�쐼,1.8,-0.5,46,0,0,11,���쐼,9.2,2,,
2017/4/13,4:00:00,11,���쐼,2.8,-0.8,61.6,0,0,11,���쐼,5.4,35,,
2017/4/13,5:00:00,9,��쐼,1.9,-3.6,71.2,0,0.01,11,���쐼,4.1,23,,
2017/4/13,6:00:00,16,�k,2.1,0.8,66.8,0,0.1,10,�쐼,15.8,58,,
2017/4/13,7:00:00,12,��,6,3.4,45.8,0,0.3,12,��,13.3,12,,
2017/4/13,8:00:00,11,���쐼,8.8,5.2,40.7,0,0.53,12,��,15.8,31,,
2017/4/13,9:00:00,10,�쐼,8.1,4.2,50.9,0,0.7,11,���쐼,17.8,32,,
2017/4/13,10:00:00,11,���쐼,9.7,3.7,41.8,0,0.79,12,��,16.5,46,,
2017/4/13,11:00:00,12,��,11.1,5.3,33.7,0,0.94,12,��,17.2,37,,
2017/4/13,12:00:00,13,���k��,4.5,2.7,64.1,0,0.64,12,��,18,7,,
2017/4/13,13:00:00,12,��,5.1,0.9,76.1,0,0.55,11,���쐼,13.6,9,,
2017/4/13,14:00:00,14,�k��,4.9,0.5,52.3,0,0.63,12,��,12.5,43,,
2017/4/13,15:00:00,13,���k��,5.3,0.8,56.8,0,0.28,13,���k��,9.1,51,,
2017/4/13,16:00:00,12,��,4.2,0.6,60.1,0,0.22,11,���쐼,8.1,5,,
2017/4/13,17:00:00,14,�k��,4.7,-2.2,76.6,0,0.13,12,��,11.7,22,,
2017/4/13,18:00:00,11,���쐼,3.5,-1.5,76.9,0,0.03,14,�k��,6.2,1,,
2017/4/13,19:00:00,10,�쐼,2.1,-1.6,76.1,0,0.01,12,��,5,3,,
2017/4/13,20:00:00,10,�쐼,3.8,-1,72.3,0,0,10,�쐼,6.4,33,,
2017/4/13,21:00:00,10,�쐼,5.1,-0.4,69.3,0,0,10,�쐼,8,58,,
2017/4/13,22:00:00,10,�쐼,2.6,-0.9,68.1,0,0,10,�쐼,7.7,0,,
2017/4/13,23:00:00,10,�쐼,2.3,-0.2,64.3,0,0,11,���쐼,5.4,56,,
2017/4/13,0:00:00,10,�쐼,4.7,1.9,51.6,0,0,11,���쐼,9.2,48,,
2017/4/14,1:00:00,10,�쐼,5.5,2.8,45.9,0,0,11,���쐼,8.2,54,,
2017/4/14,2:00:00,10,�쐼,3.8,2.8,46.9,0,0,11,���쐼,9,0,,
2017/4/14,3:00:00,3,���k��,2.2,-3.1,63.6,0,0,10,�쐼,4.3,7,,
2017/4/14,4:00:00,13,���k��,0.3,-6.8,69.8,0,0,10,�쐼,12.8,53,,
2017/4/14,5:00:00,13,���k��,1.4,-4.7,81.3,0,0.01,12,��,2.6,59,,
2017/4/14,6:00:00,12,��,0.4,-0.9,81.2,0,0.1,14,�k��,2.8,20,,
2017/4/14,7:00:00,4,��,1.6,3.6,47,0,0.3,5,���쓌,3.3,59,,
2017/4/14,8:00:00,5,���쓌,1.3,5.5,48.3,0,0.51,4,��,3.6,15,,
2017/4/14,9:00:00,2,�k��,2.6,8,45.4,0,0.69,2,�k��,4.3,25,,
2017/4/14,10:00:00,4,��,4.2,9.8,50.7,0,0.84,4,��,6.5,24,,
2017/4/14,11:00:00,10,�쐼,7.8,16.3,27.4,0,0.95,11,���쐼,12.1,59,,
2017/4/14,12:00:00,11,���쐼,8.4,16.6,29,0,0.98,10,�쐼,13.6,30,,
2017/4/14,13:00:00,9,��쐼,6,13.2,37.9,0,0.91,11,���쐼,12.3,4,,
2017/4/14,14:00:00,9,��쐼,4.6,15.4,30.1,0,0.8,11,���쐼,10.2,11,,
2017/4/14,15:00:00,11,���쐼,6.5,16.9,33.7,0,0.68,11,���쐼,12.8,49,,
2017/4/14,16:00:00,11,���쐼,7.1,16.1,30.8,0,0.5,11,���쐼,12.9,55,,
2017/4/14,17:00:00,11,���쐼,7.8,14.7,34.5,0,0.2,10,�쐼,13.2,49,,
2017/4/14,18:00:00,11,���쐼,10.6,14.5,38.6,0,0.04,11,���쐼,19,27,,
2017/4/14,19:00:00,11,���쐼,10.1,14.4,44.5,0,0,11,���쐼,18.8,41,,
2017/4/14,20:00:00,11,���쐼,9.8,14.6,48.3,0,0,10,�쐼,18,17,,
2017/4/14,21:00:00,11,���쐼,12.6,14.2,47.4,0,0,11,���쐼,18.9,4,,
2017/4/14,22:00:00,11,���쐼,6,12.2,59.1,0,0,11,���쐼,18.3,4,,
2017/4/14,23:00:00,11,���쐼,9.6,13.5,54.5,0,0,11,���쐼,17,55,,
2017/4/14,0:00:00,12,��,7.4,13.4,52.8,0,0,12,��,12.2,32,,
2017/4/15,1:00:00,12,��,6.4,14.1,46,0,0,11,���쐼,13.1,56,,
2017/4/15,2:00:00,11,���쐼,2.8,13.6,43.7,0,0,11,���쐼,12.4,5,,
2017/4/15,3:00:00,7,��쓌,5.6,8.8,53.2,0,0,7,��쓌,8.2,59,,
2017/4/15,4:00:00,8,��,2.5,9.3,61,0,0,7,��쓌,8.4,2,,
2017/4/15,5:00:00,9,��쐼,1.8,8.9,55.8,0,0.01,7,��쓌,5.4,3,,
2017/4/15,6:00:00,7,��쓌,3.3,10.9,56.9,0,0.04,7,��쓌,6.1,51,,
2017/4/15,7:00:00,9,��쐼,4.7,13.1,55.4,0,0.1,10,�쐼,7.7,57,,
2017/4/15,8:00:00,10,�쐼,4.7,14.3,53.6,0,0.16,9,��쐼,9.1,58,,
2017/4/15,9:00:00,10,�쐼,5.6,16,46.8,0,0.32,10,�쐼,12,8,,
2017/4/15,10:00:00,11,���쐼,6.8,15.8,44.2,0,0.45,10,�쐼,12.5,11,,
2017/4/15,11:00:00,10,�쐼,6,15,50.2,0,0.34,11,���쐼,12.2,20,,
2017/4/15,12:00:00,10,�쐼,5.1,15.5,52.1,0,0.36,11,���쐼,10.1,2,,
2017/4/15,13:00:00,10,�쐼,7.4,16.6,51.4,0,0.5,10,�쐼,11.7,27,,
2017/4/15,14:00:00,10,�쐼,5,16.6,50.7,0,0.69,11,���쐼,10.8,41,,
2017/4/15,15:00:00,10,�쐼,5.6,17.2,54.2,0,0.62,10,�쐼,9.1,49,,
2017/4/15,16:00:00,9,��쐼,5.8,15.5,53.5,0,0.47,10,�쐼,10.2,27,,
2017/4/15,17:00:00,8,��,3.6,11.7,68.1,0,0.25,8,��,8.1,33,,
2017/4/15,18:00:00,10,�쐼,3.2,9.6,67,0,0.06,8,��,7.9,15,,
2017/4/15,19:00:00,11,���쐼,4.2,10.7,71.8,0,0,10,�쐼,5.7,49,,
2017/4/15,20:00:00,1,�k�k��,1.6,4.4,65.2,0,0,11,���쐼,4.6,3,,
2017/4/15,21:00:00,16,�É�,0,4.1,79.1,0,0,3,���k��,2.7,0,,
2017/4/15,22:00:00,11,���쐼,4.3,11.9,93.8,0,0,10,�쐼,7.6,39,,
2017/4/15,23:00:00,11,���쐼,4.6,12,68.2,0,0,10,�쐼,8.1,7,,
2017/4/15,0:00:00,10,�쐼,6.6,11.2,69.1,0,0,10,�쐼,10.1,57,,
2017/4/16,1:00:00,10,�쐼,4.5,11.2,69.5,0,0,10,�쐼,10.1,5,,
2017/4/16,2:00:00,9,��쐼,4.8,11.4,67.6,0,0,9,��쐼,8.4,49,,
2017/4/16,3:00:00,8,��,2,9.6,67.3,0,0,10,�쐼,7.5,6,,
2017/4/16,4:00:00,9,��쐼,4.2,10.2,72.1,0,0,9,��쐼,7.9,32,,
2017/4/16,5:00:00,8,��,2.8,6.7,75.4,0,0.01,8,��,8.8,16,,
2017/4/16,6:00:00,7,��쓌,3.5,6.2,78.1,0,0.1,7,��쓌,6.2,19,,
2017/4/16,7:00:00,12,��,1.9,14.1,62,0,0.29,11,���쐼,7.6,59,,
2017/4/16,8:00:00,11,���쐼,8.3,16.7,50,0,0.5,10,�쐼,14.2,37,,
2017/4/16,9:00:00,10,�쐼,5.6,17.8,53.1,0,0.44,11,���쐼,15.3,20,,
2017/4/16,10:00:00,11,���쐼,9.6,18.1,48,0,0.58,10,�쐼,15,16,,
2017/4/16,11:00:00,9,��쐼,2.6,17.6,49.8,0,0.46,10,�쐼,15.2,5,,
2017/4/16,12:00:00,10,�쐼,6.3,18.9,46.9,0,0.84,10,�쐼,11.4,52,,
2017/4/16,13:00:00,10,�쐼,6.9,19.4,37.6,0,0.88,12,��,12.6,37,,
2017/4/16,14:00:00,11,���쐼,7.2,19.2,36.6,0,0.78,11,���쐼,13,15,,
2017/4/16,15:00:00,11,���쐼,7.5,17.9,40.7,0,0.64,12,��,12.3,28,,
2017/4/16,16:00:00,11,���쐼,5.7,17.9,39.3,0,0.44,12,��,11.3,23,,
2017/4/16,17:00:00,12,��,6.6,16.2,42.1,0,0.27,11,���쐼,12.3,33,,
2017/4/16,18:00:00,12,��,6.3,14.3,37.4,0,0.08,12,��,10.7,49,,
2017/4/16,19:00:00,13,���k��,7.4,11.4,22.7,0,0.01,13,���k��,15.1,37,,
2017/4/16,20:00:00,13,���k��,5.6,10.2,26.3,0,0,13,���k��,14.9,7,,
2017/4/16,21:00:00,11,���쐼,7,9.9,28,0,0,8,��,13.2,14,,
2017/4/16,22:00:00,12,��,3.2,8.8,29.7,0,0,13,���k��,10.7,1,,
2017/4/16,23:00:00,13,���k��,3.8,8.2,33.5,0,0,3,���k��,9.4,25,,
2017/4/16,0:00:00,13,���k��,4.4,8.2,38.4,0,0,12,��,8.9,34,,
2017/4/17,1:00:00,14,�k��,5.8,7.7,39.8,0,0,14,�k��,10.5,55,,
2017/4/17,2:00:00,14,�k��,5.6,7.7,34.3,0,0,10,�쐼,10.7,1,,
2017/4/17,3:00:00,14,�k��,2.6,6,40.6,0,0,15,�k�k��,11.1,4,,
2017/4/17,4:00:00,11,���쐼,2.2,3.8,46.7,0,0,14,�k��,5.7,10,,
2017/4/17,5:00:00,11,���쐼,2.3,1,54.8,0,0.01,12,��,3.7,36,,
2017/4/17,6:00:00,11,���쐼,2.4,5.2,54.2,0,0.14,10,�쐼,3.3,18,,
2017/4/17,7:00:00,9,��쐼,2.6,8.6,35.7,0,0.35,10,�쐼,4.3,46,,
2017/4/17,8:00:00,9,��쐼,4.1,10,29.8,0,0.55,10,�쐼,6,56,,
2017/4/17,9:00:00,6,�쓌,3.4,9.4,30.3,0,0.74,6,�쓌,6.6,50,,
2017/4/17,10:00:00,7,��쓌,4.2,10.6,29,0,0.81,7,��쓌,6.8,56,,
2017/4/17,11:00:00,7,��쓌,4.5,12,30.5,0,0.86,6,�쓌,6.8,10,,
2017/4/17,12:00:00,8,��,5,10.5,34.4,0,0.96,8,��,8.7,50,,
2017/4/17,13:00:00,8,��,5.9,9.1,38.1,0,0.96,8,��,9.9,44,,
2017/4/17,14:00:00,8,��,4.6,12.3,34,0,0.85,9,��쐼,8.5,22,,